De Queen, AR

6:14 AM CDT on May 26, 2020 (GMT -0500)
Helms Sevier County

Weather History for KDEQ - December, 2019

Change the Weather History Date:

Sunday, December 15, 2019

  Actual Average Record
Temperature  
Mean Temperature 43 °F 43 °F  
Max Temperature 52 °F 55 °F 76 °F (1995)
Min Temperature 34 °F 30 °F 13 °F (1963)
Degree Days  
Heating Degree Days 22 22  
Month to date heating degree days 285 315  
Since 1 July heating degree days 908 841  
Cooling Degree Days 0 0  
Month to date cooling degree days 0 0  
Year to date cooling degree days 2315 1941  
Moisture  
Dew Point 45 °F    
Average Humidity 90    
Maximum Humidity 100    
Minimum Humidity 79    
Precipitation  
Precipitation 0.00 in 0.12 in 4.79 in (1992)
Month to date precipitation 0.12 1.84  
Year to date precipitation 50.72 46.47  
Snow  
Snow 0.00 in - - ()
Month to date snowfall 0.0  
Since 1 July snowfall 0.0  
Snow Depth 0.00 in    
Sea Level Pressure  
Sea Level Pressure 29.83 in    
Wind  
Wind Speed 5 mph ()    
Max Wind Speed 16 mph    
Max Gust Speed 20 mph    
Visibility 4.0 miles    
Events Fog    
T = Trace of Precipitation, MM = Missing Value Source: Averaged Metar Reports

Daily Weather History Graph

Daily Weather History Graph

Search for Another Location

Airport or City:

Astronomy

Dec. 15, 2019 Rise Set
Actual Time 7:15 AM CST 5:09 PM CST
Civil Twilight 6:47 AM CST 5:37 PM CST
Nautical Twilight 6:16 AM CST 6:08 PM CST
Astronomical Twilight 5:46 AM CST 6:39 PM CST
Moon 8:50 PM CST (12/15) 10:21 AM CST (12/15)
Length of Visible Light 10h 49m
Length of Day
9h 54m
Waning Gibbous, 86% of the Moon is Illuminated
Dec 15
Waning Gibbous
Dec 18
Last Quarter
Dec 25
New
Jan 2
First Quarter
Jan 10
Full

Hourly Weather History & Observations

Time (CST) Temp. Windchill Dew Point Humidity Pressure Visibility Wind Dir Wind Speed Gust Speed Precip Events Conditions
12:13 AM 34.0 °F 29.8 °F 32.0 °F 92% 29.90 in 1.8 mi NE 4.6 mph - N/A   Clear
12:21 AM 36.0 °F 31.1 °F 33.1 °F 89% 29.90 in 3.0 mi ENE 5.8 mph - N/A   Clear
1:53 AM 43.0 °F 38.2 °F 39.0 °F 86% 29.88 in 10.0 mi East 8.1 mph - N/A   Clear
3:53 AM 44.1 °F 38.1 °F 39.0 °F 82% 29.87 in 10.0 mi East 11.5 mph - N/A   Clear
5:53 AM 44.1 °F 38.6 °F 39.0 °F 82% 29.85 in 10.0 mi East 10.4 mph - N/A   Scattered Clouds
6:02 AM 45.0 °F 40.6 °F 39.9 °F 82% 29.85 in 10.0 mi East 8.1 mph - N/A   Mostly Cloudy
6:40 AM 46.0 °F 40.2 °F 39.9 °F 79% 29.84 in 10.0 mi East 12.7 mph - N/A   Overcast
6:53 AM 46.0 °F 41.4 °F 41.0 °F 83% 29.83 in 10.0 mi East 9.2 mph 18.4 mph N/A   Overcast
7:53 AM 46.9 °F - 42.1 °F 83% 29.83 in 10.0 mi East 11.5 mph - N/A   Overcast
9:03 AM 46.9 °F - 43.0 °F 86% 29.83 in 10.0 mi East 12.7 mph - N/A   Overcast
10:53 AM 48.0 °F - 45.0 °F 89% 29.83 in 4.0 mi East 9.2 mph - N/A   Overcast
11:53 AM 48.9 °F - 46.0 °F 90% 29.80 in 4.0 mi East 8.1 mph - N/A   Overcast
12:53 PM 50.0 °F - 46.9 °F 89% 29.77 in 3.0 mi East 4.6 mph - N/A   Overcast
1:53 PM 51.1 °F - 48.0 °F 89% 29.75 in 3.0 mi ENE 6.9 mph - N/A   Overcast
2:53 PM 52.0 °F - 48.9 °F 89% 29.77 in 2.5 mi East 5.8 mph - N/A   Overcast
3:53 PM 52.0 °F - 48.9 °F 89% 29.78 in 1.5 mi NE 3.5 mph - N/A   Overcast
4:53 PM 52.0 °F - 50.0 °F 93% 29.80 in 1.2 mi NNE 3.5 mph - N/A   Overcast
5:31 PM 51.1 °F - 48.9 °F 92% 29.81 in 2.0 mi NE 3.5 mph - N/A   Overcast
5:53 PM 51.1 °F - 48.9 °F 92% 29.81 in 2.0 mi Calm Calm - N/A   Overcast
6:13 PM 51.1 °F - 48.9 °F 92% 29.82 in 1.8 mi Calm Calm - N/A   Overcast
6:41 PM 51.1 °F - 48.9 °F 92% 29.83 in 2.0 mi Calm Calm - N/A   Overcast
6:53 PM 51.1 °F - 48.9 °F 92% 29.83 in 2.0 mi Calm Calm - N/A   Overcast
7:10 PM 51.1 °F - 50.0 °F 96% 29.84 in 3.0 mi Calm Calm - N/A   Overcast
8:13 PM 52.0 °F - 48.9 °F 89% 29.85 in 4.0 mi Calm Calm - N/A   Overcast
8:53 PM 51.1 °F - 48.9 °F 92% 29.85 in 3.0 mi Calm Calm - N/A   Overcast
9:42 PM 50.0 °F - 48.0 °F 93% 29.86 in 0.2 mi Calm Calm - N/A Fog Fog
10:11 PM 46.9 °F - 46.0 °F 97% 29.85 in 0.2 mi Calm Calm - N/A Fog Fog
10:40 PM 46.9 °F - 45.0 °F 93% 29.85 in 0.5 mi ESE 3.5 mph - N/A Fog Fog
10:49 PM 48.2 °F - 46.4 °F 93% 29.85 in 2.0 mi SE 3.5 mph - N/A   Scattered Clouds
11:12 PM 46.0 °F - 44.1 °F 93% 29.85 in 0.2 mi Calm Calm - N/A Fog Fog
11:45 PM 46.9 °F - 45.0 °F 93% 29.84 in 0.5 mi Calm Calm - N/A Fog Fog
11:53 PM 46.9 °F - 46.0 °F 97% 29.84 in 1.5 mi Calm Calm - N/A   Overcast
11:55 PM 46.9 °F - 46.0 °F 97% 29.85 in 2.0 mi Calm Calm - N/A   Overcast